�v������,���r���O(���x),�����t���O,���r���O(���x),�����t���O,��1(���x),�����t���O,�������x,�����t���O,�C�ۑ�(���x),�����t���O,�C�ۑ�(���x),�����t���O
12/1/2002 0:00,20.7,0,45.1,0,19.5,0,14.2,0,11.9,0,75.8,0
12/1/2002 0:15,20.6,0,45,0,19.4,0,14.3,0,11.8,0,75.6,0
12/1/2002 0:30,20.4,0,45,0,19.4,0,13.8,0,11.8,0,75.3,0
12/1/2002 0:45,20.2,0,46,0,19.3,0,13.8,0,11.7,0,75.1,0
12/1/2002 1:00,19.9,0,46.5,0,19.2,0,13.9,0,11.7,0,74.8,0
12/1/2002 1:15,19.6,0,47.2,0,19.1,0,13.9,0,11.6,0,74.1,0
12/1/2002 1:30,19.4,0,47.7,0,19,0,13.9,0,11.5,0,73.3,0
12/1/2002 1:45,19.2,0,48.3,0,18.9,0,14,0,11.4,0,72.6,0
12/1/2002 2:00,18.9,0,48.8,0,18.8,0,14,0,11.3,0,71.8,0
12/1/2002 2:15,18.7,0,49.3,0,18.7,0,14.1,0,11.2,0,71.3,0
12/1/2002 2:30,18.5,0,49.6,0,18.6,0,14.1,0,11.1,0,70.8,0
12/1/2002 2:45,18.4,0,50,0,18.5,0,14.1,0,11.1,0,70.3,0
12/1/2002 3:00,18.2,0,50.2,0,18.4,0,14.2,0,11,0,69.8,0
12/1/2002 3:15,18,0,50.6,0,18.3,0,14.2,0,11,0,69.6,0
12/1/2002 3:30,17.9,0,50.9,0,18.2,0,14.3,0,10.9,0,69.3,0
12/1/2002 3:45,17.8,0,51.1,0,18.1,0,14.3,0,10.9,0,69.1,0
12/1/2002 4:00,17.6,0,51.4,0,18,0,14.3,0,10.9,0,68.8,0
12/1/2002 4:15,17.5,0,51.7,0,17.9,0,14.4,0,10.8,0,68.6,0
12/1/2002 4:30,17.4,0,51.9,0,17.8,0,14.4,0,10.7,0,68.3,0
12/1/2002 4:45,17.3,0,52.1,0,17.7,0,14.4,0,10.7,0,68.1,0
12/1/2002 5:00,17.1,0,52.3,0,17.6,0,14.5,0,10.6,0,67.8,0
12/1/2002 5:15,17,0,52.6,0,17.5,0,14.5,0,10.5,0,67.6,0
12/1/2002 5:30,16.9,0,52.5,0,17.4,0,14.5,0,10.5,0,67.3,0
12/1/2002 5:45,16.8,0,52.8,0,17.3,0,14.5,0,10.4,0,67.1,0
12/1/2002 6:00,16.7,0,52.9,0,17.3,0,14.6,0,10.4,0,66.8,0
12/1/2002 6:15,16.6,0,52.8,0,17.2,0,14.6,0,10.5,0,66.3,0
12/1/2002 6:30,17.2,0,52.3,0,17.2,0,14.6,0,10.6,0,65.8,0
12/1/2002 6:45,17.5,0,51.8,0,17.3,0,14.6,0,10.8,0,65.3,0
12/1/2002 7:00,17.9,0,51.4,0,17.4,0,14.7,0,10.9,0,64.8,0
12/1/2002 7:15,18.4,0,50.8,0,17.5,0,14.7,0,10.8,0,65.1,0
12/1/2002 7:30,18.8,0,50.2,0,17.6,0,14.7,0,10.7,0,65.3,0
12/1/2002 7:45,19,0,48.5,0,17.7,0,14.7,0,10.6,0,65.6,0
12/1/2002 8:00,19,0,48,0,17.8,0,14.7,0,10.5,0,65.8,0
12/1/2002 8:15,19,0,47.5,0,17.7,0,14.8,0,10.4,0,66.8,0
12/1/2002 8:30,18.9,0,47.1,0,17.7,0,14.8,0,10.3,0,67.8,0
12/1/2002 8:45,18.8,0,47.2,0,17.7,0,14.8,0,10.2,0,68.8,0
12/1/2002 9:00,18.7,0,47.1,0,17.6,0,14.8,0,10.1,0,69.8,0
12/1/2002 9:15,18.6,0,47,0,17.6,0,14.8,0,10.1,0,70.6,0
12/1/2002 9:30,18.4,0,47.7,0,17.6,0,14.8,0,10.1,0,71.3,0
12/1/2002 9:45,18.4,0,48.3,0,17.6,0,14.8,0,10.2,0,72.1,0
12/1/2002 10:00,18.6,0,48.6,0,17.8,0,14.8,0,10.2,0,72.8,0
12/1/2002 10:15,18.8,0,49.8,0,17.8,0,14.9,0,10.2,0,72.6,0
12/1/2002 10:30,19.1,0,50.2,0,17.9,0,14.9,0,10.2,0,72.3,0
12/1/2002 10:45,19.2,0,48.8,0,17.9,0,14.9,0,10.2,0,72.1,0
12/1/2002 11:00,19.1,0,48.2,0,17.8,0,14.9,0,10.2,0,71.8,0
12/1/2002 11:15,19.1,0,47.1,0,17.9,0,14.9,0,10.1,0,72.1,0
12/1/2002 11:30,19.4,0,49.5,0,18.5,0,14.9,0,10,0,72.3,0
12/1/2002 11:45,19.6,0,49.4,0,19.1,0,14.9,0,10,0,72.6,0
12/1/2002 12:00,19.8,0,49,0,19.4,0,14.9,0,9.9,0,72.8,0
12/1/2002 12:15,20.1,0,49.1,0,19.8,0,14.9,0,9.8,0,73.3,0
12/1/2002 12:30,20.5,0,49.4,0,20.1,0,14.9,0,9.8,0,73.8,0
12/1/2002 12:45,20.8,0,49.3,0,20.4,0,14.9,0,9.7,0,74.3,0
12/1/2002 13:00,21,0,48.3,0,20.6,0,14,0,9.7,0,74.8,0
12/1/2002 13:15,21.2,0,47.7,0,20.6,0,14,0,9.8,0,75.3,0
12/1/2002 13:30,21.3,0,47.3,0,20.8,0,14,0,9.9,0,75.8,0
12/1/2002 13:45,21.5,0,45.7,0,20.7,0,14.1,0,10,0,76.3,0
12/1/2002 14:00,21.5,0,47.8,0,20.6,0,12.4,0,10.1,0,76.8,0
12/1/2002 14:15,21.7,0,49.5,0,20.5,0,12.5,0,10,0,78.1,0
12/1/2002 14:30,21.9,0,48.9,0,20.5,0,12.5,0,9.8,0,79.3,0
12/1/2002 14:45,22,0,48.3,0,20.5,0,12.6,0,9.7,0,80.6,0
12/1/2002 15:00,22,0,47.7,0,20.6,0,12.6,0,9.6,0,81.8,0
12/1/2002 15:15,22.1,0,47.3,0,20.6,0,12.7,0,9.7,0,81.6,0
12/1/2002 15:30,22.1,0,47.3,0,20.6,0,12.7,0,9.7,0,81.3,0
12/1/2002 15:45,22.2,0,47,0,20.6,0,12.7,0,9.8,0,81.1,0
12/1/2002 16:00,22.2,0,46.7,0,20.5,0,12.8,0,9.9,0,80.8,0
12/1/2002 16:15,22.3,0,46.8,0,20.4,0,12.8,0,9.9,0,80.8,0
12/1/2002 16:30,22.3,0,46.5,0,20.4,0,12.9,0,9.9,0,80.8,0
12/1/2002 16:45,22.3,0,46.4,0,20.3,0,12.9,0,9.9,0,80.8,0
12/1/2002 17:00,22.3,0,46.4,0,20.3,0,13.2,0,9.9,0,80.8,0
12/1/2002 17:15,22.2,0,46.1,0,20.4,0,12.8,0,9.8,0,80.6,0
12/1/2002 17:30,22.1,0,46.2,0,20.4,0,12.9,0,9.8,0,80.3,0
12/1/2002 17:45,22.1,0,46.2,0,20.4,0,12.9,0,9.7,0,80.1,0
12/1/2002 18:00,22.1,0,46.2,0,20.4,0,12.9,0,9.7,0,79.8,0
12/1/2002 18:15,22.1,0,46.1,0,20.4,0,13,0,9.7,0,79.6,0
12/1/2002 18:30,21.8,0,45.4,0,20.3,0,13,0,9.7,0,79.3,0
12/1/2002 18:45,21.7,0,46.2,0,20.2,0,13,0,9.7,0,79.1,0
12/1/2002 19:00,21.5,0,46.4,0,20.2,0,13.1,0,9.7,0,78.8,0
12/1/2002 19:15,21.5,0,47.5,0,20.1,0,13.1,0,9.7,0,78.8,0
12/1/2002 19:30,21.6,0,47.5,0,20.2,0,13.2,0,9.7,0,78.8,0
12/1/2002 19:45,21.6,0,47.9,0,20.2,0,13.2,0,9.7,0,78.8,0
12/1/2002 20:00,21.7,0,48.4,0,20.2,0,13.2,0,9.7,0,78.8,0
12/1/2002 20:15,21.7,0,49.9,0,20.1,0,12.1,0,9.7,0,78.6,0
12/1/2002 20:30,21.6,0,51.5,0,20,0,12.2,0,9.7,0,78.3,0
12/1/2002 20:45,21.5,0,51.8,0,19.9,0,12.2,0,9.7,0,78.1,0
12/1/2002 21:00,21.6,0,51.7,0,19.8,0,12.3,0,9.7,0,77.8,0
12/1/2002 21:15,21.8,0,52.9,0,19.8,0,12.3,0,9.7,0,77.8,0
12/1/2002 21:30,21.8,0,52.7,0,19.8,0,12.4,0,9.7,0,77.8,0
12/1/2002 21:45,21.9,0,52.5,0,19.8,0,12.5,0,9.7,0,77.8,0
12/1/2002 22:00,21.9,0,53.6,0,19.8,0,12.5,0,9.7,0,77.8,0
12/1/2002 22:15,21.9,0,52.5,0,19.7,0,12.6,0,9.6,0,77.3,0
12/1/2002 22:30,21.9,0,51,0,19.8,0,12.6,0,9.6,0,76.8,0
12/1/2002 22:45,21.8,0,50.3,0,20,0,12.7,0,9.5,0,76.3,0
12/1/2002 23:00,21.7,0,50.7,0,20.2,0,12.8,0,9.5,0,75.8,0
12/1/2002 23:15,21.6,0,52.7,0,20.4,0,12.8,0,9.4,0,75.6,0
12/1/2002 23:30,21.4,0,52.6,0,20.5,0,12.9,0,9.4,0,75.3,0
12/1/2002 23:45,21.2,0,52.7,0,20.5,0,12.9,0,9.3,0,75.1,0
12/2/2002 0:00,21,0,54.7,0,20.5,0,13,0,9.3,0,74.8,0
12/2/2002 0:15,20.8,0,54.8,0,20.5,0,13.1,0,9.3,0,75.1,0
12/2/2002 0:30,20.7,0,54.5,0,20.5,0,13.1,0,9.3,0,75.3,0
12/2/2002 0:45,20.5,0,54.5,0,20.4,0,13.2,0,9.3,0,75.6,0
12/2/2002 1:00,20.2,0,54.1,0,20.4,0,13.2,0,9.3,0,75.8,0
12/2/2002 1:15,20,0,54.2,0,20.3,0,13.3,0,9.3,0,75.1,0
12/2/2002 1:30,19.9,0,54,0,20.3,0,13.3,0,9.4,0,74.3,0
12/2/2002 1:45,19.7,0,53.9,0,20.2,0,13.4,0,9.4,0,73.6,0
12/2/2002 2:00,19.5,0,53.8,0,20.2,0,13.4,0,9.5,0,72.8,0
12/2/2002 2:15,19.4,0,53.5,0,20.1,0,13.5,0,9.5,0,72.1,0
12/2/2002 2:30,19.2,0,53.5,0,20.1,0,13.5,0,9.4,0,71.3,0
12/2/2002 2:45,19.1,0,53.4,0,20,0,13.6,0,9.4,0,70.6,0
12/2/2002 3:00,18.9,0,53.3,0,19.9,0,13.6,0,9.4,0,69.8,0
12/2/2002 3:15,18.8,0,53.1,0,19.9,0,13.7,0,9.3,0,70.6,0
12/2/2002 3:30,18.6,0,53.2,0,19.8,0,13.7,0,9.2,0,71.3,0
12/2/2002 3:45,18.5,0,52.9,0,19.7,0,13.7,0,9.1,0,72.1,0
12/2/2002 4:00,18.4,0,53.2,0,19.7,0,13.5,0,9,0,72.8,0
12/2/2002 4:15,18.2,0,53.1,0,19.7,0,13.6,0,9,0,72.6,0
12/2/2002 4:30,18.1,0,53.1,0,19.7,0,13.1,0,9,0,72.3,0
12/2/2002 4:45,18,0,52.9,0,19.6,0,13.2,0,9,0,72.1,0
12/2/2002 5:00,17.8,0,52.7,0,19.6,0,13.2,0,9,0,71.8,0
12/2/2002 5:15,17.7,0,52.6,0,19.6,0,13.3,0,8.9,0,71.8,0
12/2/2002 5:30,17.5,0,52.5,0,19.5,0,13.3,0,8.8,0,71.8,0
12/2/2002 5:45,17.4,0,52.5,0,19.5,0,13.3,0,8.7,0,71.8,0
12/2/2002 6:00,17.2,0,52.3,0,19.5,0,13.4,0,8.6,0,71.8,0
12/2/2002 6:15,17.1,0,52.3,0,19.4,0,13.4,0,8.6,0,71.8,0
12/2/2002 6:30,17,0,53.4,0,19.4,0,13.5,0,8.7,0,71.8,0
12/2/2002 6:45,17.1,0,51.5,0,19.2,0,13,0,8.7,0,71.8,0
12/2/2002 7:00,17.6,0,53.5,0,19.1,0,13,0,8.8,0,71.8,0
12/2/2002 7:15,18,0,53,0,19.1,0,13.1,0,8.9,0,72.1,0
12/2/2002 7:30,18.4,0,52.5,0,19.1,0,13.1,0,9,0,72.3,0
12/2/2002 7:45,18.7,0,51,0,19,0,13.1,0,9.1,0,72.6,0
12/2/2002 8:00,18.9,0,50.1,0,19.1,0,13.2,0,9.2,0,72.8,0
12/2/2002 8:15,18.9,0,49.3,0,19.1,0,13.2,0,9.5,0,71.1,0
12/2/2002 8:30,18.9,0,48.5,0,19,0,13.3,0,9.8,0,69.3,0
12/2/2002 8:45,18.9,0,48.2,0,19,0,13.3,0,10.1,0,67.6,0
12/2/2002 9:00,18.8,0,47.9,0,19.1,0,13.3,0,10.4,0,65.8,0
12/2/2002 9:15,18.7,0,48.1,0,19.1,0,13.3,0,10.6,0,64.6,0
12/2/2002 9:30,18.6,0,47.7,0,19.2,0,13.4,0,10.7,0,63.3,0
12/2/2002 9:45,18.5,0,47.6,0,19.2,0,13.4,0,10.9,0,62.1,0
12/2/2002 10:00,18.4,0,47.7,0,19.3,0,13.4,0,11.1,0,60.8,0
12/2/2002 10:15,18.4,0,47.7,0,19.4,0,13.5,0,11.4,0,59.5,0
12/2/2002 10:30,18.3,0,47.7,0,19.6,0,13.5,0,11.6,0,58.3,0
12/2/2002 10:45,18.2,0,47.6,0,19.7,0,13.5,0,11.9,0,57,0
12/2/2002 11:00,18.2,0,47.9,0,19.8,0,13.6,0,12.2,0,55.8,0
12/2/2002 11:15,18.1,0,47.8,0,20,0,13.6,0,12.6,0,53.5,0
12/2/2002 11:30,18.1,0,48.1,0,20.2,0,13.6,0,12.9,0,51.3,0
12/2/2002 11:45,18.1,0,48.3,0,20.4,0,13.7,0,13.3,0,49,0
12/2/2002 12:00,18.1,0,48.3,0,20.6,0,13.7,0,13.7,0,46.8,0
12/2/2002 12:15,18.2,0,48.4,0,20.8,0,13.7,0,13.7,0,45.3,0
12/2/2002 12:30,18.2,0,48.5,0,21.1,0,13.7,0,13.6,0,43.8,0
12/2/2002 12:45,18.2,0,48.3,0,21.3,0,13.8,0,13.6,0,42.3,0
12/2/2002 13:00,18.3,0,48.2,0,21.5,0,13.8,0,13.6,0,40.8,0
12/2/2002 13:15,18.4,0,48.3,0,21.7,0,13.8,0,13.9,0,41.8,0
12/2/2002 13:30,18.5,0,48.3,0,21.9,0,13.9,0,14.1,0,42.8,0
12/2/2002 13:45,18.6,0,48.4,0,22.1,0,13.9,0,14.4,0,43.8,0
12/2/2002 14:00,18.7,0,48.3,0,22.2,0,13.9,0,14.7,0,44.8,0
12/2/2002 14:15,18.8,0,48,0,22.3,0,14,0,14.6,0,44.5,0
12/2/2002 14:30,18.9,0,48.2,0,22.3,0,14,0,14.5,0,44.3,0
12/2/2002 14:45,18.9,0,48.1,0,22.3,0,14,0,14.5,0,44,0
12/2/2002 15:00,19,0,47.7,0,22.3,0,14,0,14.4,0,43.8,0
12/2/2002 15:15,19,0,47.6,0,22.2,0,14.1,0,14,0,46.5,0
12/2/2002 15:30,19,0,47.6,0,22,0,14.1,0,13.6,0,49.3,0
12/2/2002 15:45,18.9,0,47.3,0,21.9,0,14.1,0,13.3,0,52,0
12/2/2002 16:00,18.9,0,47.4,0,21.8,0,14.2,0,12.9,0,54.8,0
12/2/2002 16:15,18.9,0,47.6,0,21.7,0,14.2,0,12.9,0,55,0
12/2/2002 16:30,18.8,0,47.5,0,21.5,0,14.2,0,12.8,0,55.3,0
12/2/2002 16:45,18.7,0,48,0,21.4,0,14.3,0,12.8,0,55.5,0
12/2/2002 17:00,18.6,0,48,0,21.3,0,14.3,0,12.8,0,55.8,0
12/2/2002 17:15,18.6,0,48.1,0,21.1,0,14.3,0,12.6,0,57.3,0
12/2/2002 17:30,18.5,0,48.3,0,20.9,0,14.3,0,12.3,0,58.8,0
12/2/2002 17:45,18.4,0,48.4,0,20.8,0,14.4,0,12.1,0,60.3,0
12/2/2002 18:00,18.3,0,48.6,0,20.7,0,14.4,0,11.9,0,61.8,0
12/2/2002 18:15,18.2,0,48.7,0,20.5,0,14.4,0,11.8,0,62,0
12/2/2002 18:30,18.1,0,49.6,0,20.4,0,14.5,0,11.6,0,62.3,0
12/2/2002 18:45,18,0,50.1,0,20.2,0,14.5,0,11.5,0,62.5,0
12/2/2002 19:00,18.2,0,50.1,0,20.1,0,14.5,0,11.4,0,62.8,0
12/2/2002 19:15,18.6,0,50.3,0,20.2,0,14.5,0,11.4,0,62.5,0
12/2/2002 19:30,18.8,0,50,0,20.2,0,13.6,0,11.3,0,62.3,0
12/2/2002 19:45,19,0,48.7,0,20.1,0,13.6,0,11.3,0,62,0
12/2/2002 20:00,19.3,0,48.4,0,20,0,13.7,0,11.3,0,61.8,0
12/2/2002 20:15,19.6,0,46.7,0,20,0,13.7,0,11.2,0,61.5,0
12/2/2002 20:30,19.8,0,46.6,0,19.9,0,13.7,0,11.1,0,61.3,0
12/2/2002 20:45,20,0,46,0,19.9,0,13.4,0,11,0,61,0
12/2/2002 21:00,20.2,0,45.6,0,19.9,0,13.5,0,10.9,0,60.8,0
12/2/2002 21:15,20.4,0,45.6,0,19.8,0,13.5,0,10.9,0,61.3,0
12/2/2002 21:30,20.6,0,47.4,0,19.8,0,13.5,0,11,0,61.8,0
12/2/2002 21:45,20.8,0,46.4,0,19.9,0,13.6,0,11,0,62.3,0
12/2/2002 22:00,20.9,0,46.1,0,20,0,13.6,0,11.1,0,62.8,0
12/2/2002 22:15,21,0,45.1,0,20.3,0,13.7,0,11,0,62.8,0
12/2/2002 22:30,21.1,0,44.6,0,20.4,0,13.7,0,10.8,0,62.8,0
12/2/2002 22:45,21.2,0,44.1,0,20.4,0,13.7,0,10.7,0,62.8,0
12/2/2002 23:00,21,0,44.6,0,20.4,0,13.8,0,10.6,0,62.8,0
12/2/2002 23:15,20.8,0,43.5,0,20.4,0,13.8,0,10.6,0,63.8,0
12/2/2002 23:30,20.5,0,44,0,20.4,0,13.8,0,10.5,0,64.8,0
12/2/2002 23:45,20.3,0,45,0,20.4,0,13.9,0,10.5,0,65.8,0
12/3/2002 0:00,20.1,0,46.3,0,20.2,0,13.9,0,10.5,0,66.8,0
12/3/2002 0:15,19.8,0,47.9,0,20,0,13.9,0,10.4,0,67.3,0
12/3/2002 0:30,19.7,0,51.2,0,19.9,0,14,0,10.2,0,67.8,0
12/3/2002 0:45,19.5,0,51.6,0,19.8,0,14,0,10.1,0,68.3,0
12/3/2002 1:00,19.3,0,51.8,0,19.7,0,14,0,10,0,68.8,0
12/3/2002 1:15,19.2,0,51.4,0,19.6,0,14.1,0,9.7,0,68.8,0
12/3/2002 1:30,19,0,51.3,0,19.4,0,14.1,0,9.5,0,68.8,0
12/3/2002 1:45,18.8,0,51.2,0,19.3,0,14.1,0,9.2,0,68.8,0
12/3/2002 2:00,18.6,0,51.2,0,19.2,0,14.2,0,9,0,68.8,0
12/3/2002 2:15,18.4,0,51.3,0,19.1,0,14.2,0,9,0,67.8,0
12/3/2002 2:30,18.2,0,51.1,0,18.9,0,14.2,0,9,0,66.8,0
12/3/2002 2:45,18.1,0,51.1,0,18.8,0,14.3,0,9,0,65.8,0
12/3/2002 3:00,17.9,0,51.2,0,18.7,0,14.3,0,9,0,64.8,0
12/3/2002 3:15,17.7,0,51.3,0,18.6,0,14.3,0,8.9,0,65.1,0
12/3/2002 3:30,17.5,0,51.3,0,18.5,0,14.3,0,8.8,0,65.3,0
12/3/2002 3:45,17.4,0,51.4,0,18.3,0,14.3,0,8.7,0,65.6,0
12/3/2002 4:00,17.2,0,51.5,0,18.2,0,14.4,0,8.6,0,65.8,0
12/3/2002 4:15,17,0,51.6,0,18.1,0,14.4,0,8.4,0,65.8,0
12/3/2002 4:30,16.9,0,51.8,0,18,0,14.4,0,8.3,0,65.8,0
12/3/2002 4:45,16.7,0,51.6,0,17.9,0,14.4,0,8.1,0,65.8,0
12/3/2002 5:00,16.5,0,51.9,0,17.7,0,14.4,0,8,0,65.8,0
12/3/2002 5:15,16.4,0,52,0,17.6,0,14.5,0,7.9,0,66.3,0
12/3/2002 5:30,16.2,0,52.2,0,17.5,0,14.5,0,7.7,0,66.8,0
12/3/2002 5:45,16.1,0,52.4,0,17.3,0,14.5,0,7.6,0,67.3,0
12/3/2002 6:00,15.9,0,52.4,0,17.3,0,14.5,0,7.5,0,67.8,0
12/3/2002 6:15,15.8,0,52.3,0,17.2,0,14.5,0,7.6,0,67.6,0
12/3/2002 6:30,15.6,0,51.7,0,17.1,0,14.5,0,7.6,0,67.3,0
12/3/2002 6:45,16.1,0,52.3,0,17.1,0,14.5,0,7.7,0,67.1,0
12/3/2002 7:00,16.6,0,52.8,0,17.2,0,14.5,0,7.8,0,66.8,0
12/3/2002 7:15,17.1,0,52.3,0,17.3,0,14.5,0,7.8,0,66.6,0
12/3/2002 7:30,17.7,0,53,0,17.5,0,14.5,0,7.8,0,66.3,0
12/3/2002 7:45,18.1,0,51.1,0,17.6,0,14,0,7.9,0,66.1,0
12/3/2002 8:00,18.4,0,49.9,0,17.7,0,12.9,0,7.9,0,65.8,0
12/3/2002 8:15,18.4,0,49.2,0,17.7,0,13,0,8.1,0,64.3,0
12/3/2002 8:30,18.4,0,48.6,0,17.6,0,13,0,8.2,0,62.8,0
12/3/2002 8:45,18.3,0,48.1,0,17.6,0,13,0,8.4,0,61.3,0
12/3/2002 9:00,18.2,0,47.8,0,17.6,0,13.1,0,8.6,0,59.8,0
12/3/2002 9:15,18,0,47.5,0,17.5,0,13.1,0,9.1,0,58,0
12/3/2002 9:30,17.9,0,47.3,0,17.5,0,13.1,0,9.5,0,56.3,0
12/3/2002 9:45,17.8,0,47.4,0,17.6,0,13.2,0,10,0,54.5,0
12/3/2002 10:00,17.7,0,47.5,0,17.7,0,13.2,0,10.5,0,52.8,0
12/3/2002 10:15,17.6,0,47.6,0,17.8,0,13.2,0,10.7,0,52,0
12/3/2002 10:30,17.5,0,47.8,0,17.8,0,13.2,0,11,0,51.3,0
12/3/2002 10:45,17.4,0,47.7,0,17.9,0,13.3,0,11.2,0,50.5,0
12/3/2002 11:00,17.4,0,47.9,0,18.1,0,13.3,0,11.5,0,49.8,0
12/3/2002 11:15,17.4,0,48.1,0,18.2,0,13.3,0,11.7,0,49.5,0
12/3/2002 11:30,17.4,0,48.3,0,18.4,0,13.3,0,11.9,0,49.3,0
12/3/2002 11:45,17.4,0,48.4,0,18.5,0,13.4,0,12.2,0,49,0
12/3/2002 12:00,17.4,0,48.7,0,18.7,0,13.4,0,12.4,0,48.8,0
12/3/2002 12:15,17.5,0,48.7,0,18.8,0,13.4,0,12.6,0,49,0
12/3/2002 12:30,17.5,0,48.8,0,19,0,13.5,0,12.8,0,49.3,0
12/3/2002 12:45,17.6,0,48.8,0,19.1,0,13.5,0,13,0,49.5,0
12/3/2002 13:00,17.6,0,48.8,0,19.2,0,13.5,0,13.2,0,49.8,0
12/3/2002 13:15,17.7,0,48.8,0,19.3,0,13.6,0,13.2,0,49.3,0
12/3/2002 13:30,17.7,0,48.7,0,19.3,0,13.6,0,13.2,0,48.8,0
12/3/2002 13:45,17.8,0,48.5,0,19.3,0,13.6,0,13.3,0,48.3,0
12/3/2002 14:00,17.9,0,48.3,0,19.4,0,13.6,0,13.3,0,47.8,0
12/3/2002 14:15,17.9,0,48.4,0,19.5,0,13.7,0,13.4,0,48.3,0
12/3/2002 14:30,17.9,0,48.4,0,19.5,0,13.7,0,13.4,0,48.8,0
12/3/2002 14:45,17.9,0,48.2,0,19.5,0,13.7,0,13.5,0,49.3,0
12/3/2002 15:00,17.9,0,48.2,0,19.5,0,13.8,0,13.6,0,49.8,0
12/3/2002 15:15,17.9,0,48.2,0,19.5,0,13.8,0,13.6,0,50.3,0
12/3/2002 15:30,17.9,0,48.2,0,19.5,0,13.8,0,13.6,0,50.8,0
12/3/2002 15:45,17.9,0,48.1,0,19.5,0,13.9,0,13.6,0,51.3,0
12/3/2002 16:00,17.9,0,48.1,0,19.5,0,13.9,0,13.6,0,51.8,0
12/3/2002 16:15,17.9,0,48.1,0,19.5,0,13.9,0,13.5,0,52.3,0
12/3/2002 16:30,17.9,0,48.2,0,19.4,0,14,0,13.4,0,52.8,0
12/3/2002 16:45,17.9,0,48.1,0,19.4,0,14,0,13.4,0,53.3,0
12/3/2002 17:00,17.8,0,48.2,0,19.3,0,14,0,13.3,0,53.8,0
12/3/2002 17:15,17.8,0,48.3,0,19.3,0,14,0,13.1,0,54.8,0
12/3/2002 17:30,17.7,0,48.7,0,19.2,0,14.1,0,13,0,55.8,0
12/3/2002 17:45,17.7,0,48.8,0,19.2,0,14.1,0,12.8,0,56.8,0
12/3/2002 18:00,17.6,0,49.1,0,19.1,0,14.1,0,12.7,0,57.8,0
12/3/2002 18:15,17.5,0,49.3,0,19,0,14.2,0,12.6,0,57.8,0
12/3/2002 18:30,17.4,0,49.2,0,19,0,14.2,0,12.5,0,57.8,0
12/3/2002 18:45,17.4,0,49.5,0,18.9,0,14.2,0,12.5,0,57.8,0
12/3/2002 19:00,17.4,0,50.3,0,18.8,0,13.5,0,12.4,0,57.8,0
12/3/2002 19:15,17.5,0,49.6,0,18.8,0,13.5,0,12.3,0,58,0
12/3/2002 19:30,18,0,49.7,0,18.9,0,13.6,0,12.1,0,58.3,0
12/3/2002 19:45,18.5,0,48.8,0,19,0,13.1,0,12,0,58.5,0
12/3/2002 20:00,18.9,0,48,0,19.1,0,13.2,0,11.9,0,58.8,0
12/3/2002 20:15,19.3,0,48,0,19.2,0,13.2,0,11.9,0,59,0
12/3/2002 20:30,19.6,0,48.3,0,19.3,0,13.3,0,11.9,0,59.3,0
12/3/2002 20:45,19.8,0,47,0,19.4,0,13.3,0,12,0,59.5,0
12/3/2002 21:00,20,0,46.6,0,19.4,0,13.3,0,12,0,59.8,0
12/3/2002 21:15,20.2,0,47.9,0,19.4,0,13.4,0,12,0,59.5,0
12/3/2002 21:30,20.5,0,48,0,19.4,0,13.4,0,11.9,0,59.3,0
12/3/2002 21:45,20.7,0,47.6,0,19.5,0,13.5,0,11.9,0,59,0
12/3/2002 22:00,20.7,0,46.5,0,19.5,0,13.5,0,11.9,0,58.8,0
12/3/2002 22:15,20.6,0,46.4,0,19.6,0,13.6,0,11.7,0,60,0
12/3/2002 22:30,20.5,0,46.3,0,19.7,0,13.6,0,11.6,0,61.3,0
12/3/2002 22:45,20.3,0,46.4,0,19.8,0,13.6,0,11.4,0,62.5,0
12/3/2002 23:00,20.1,0,47,0,19.7,0,13.7,0,11.3,0,63.8,0
12/3/2002 23:15,19.9,0,50.3,0,19.6,0,13.7,0,11.2,0,63.5,0
12/3/2002 23:30,19.8,0,51.8,0,19.5,0,13.8,0,11.2,0,63.3,0
12/3/2002 23:45,19.6,0,52.4,0,19.4,0,13.8,0,11.1,0,63,0
12/4/2002 0:00,19.4,0,52.2,0,19.3,0,13.8,0,11.1,0,62.8,0
12/4/2002 0:15,19.3,0,52.8,0,19.1,0,13.9,0,11,0,62.3,0
12/4/2002 0:30,19.2,0,53.4,0,19.1,0,12.9,0,10.9,0,61.8,0
12/4/2002 0:45,19.1,0,52.6,0,19,0,13,0,10.8,0,61.3,0
12/4/2002 1:00,19.1,0,52.3,0,18.9,0,13,0,10.7,0,60.8,0
12/4/2002 1:15,19.3,0,52,0,19,0,13.1,0,10.7,0,60.3,0
12/4/2002 1:30,19.5,0,52.9,0,19,0,13.1,0,10.7,0,59.8,0
12/4/2002 1:45,19.8,0,52.5,0,19.1,0,13.2,0,10.7,0,59.3,0
12/4/2002 2:00,20,0,51.9,0,19.1,0,13.2,0,10.7,0,58.8,0
12/4/2002 2:15,20.3,0,51.4,0,19.2,0,13.3,0,10.5,0,60.3,0
12/4/2002 2:30,20.4,0,51,0,19.2,0,13.3,0,10.4,0,61.8,0
12/4/2002 2:45,20.6,0,50.7,0,19.3,0,13.4,0,10.2,0,63.3,0
12/4/2002 3:00,20.7,0,50.5,0,19.3,0,13.4,0,10.1,0,64.8,0
12/4/2002 3:15,20.9,0,50,0,19.3,0,13.4,0,9.7,0,69.1,0
12/4/2002 3:30,20.9,0,49.6,0,19.4,0,13.5,0,9.4,0,73.3,0
12/4/2002 3:45,20.8,0,49.1,0,19.4,0,13.5,0,9,0,77.6,0
12/4/2002 4:00,20.7,0,48.9,0,19.4,0,13.6,0,8.7,0,81.8,0
12/4/2002 4:15,20.5,0,49.1,0,19.4,0,13.6,0,8.8,0,81.1,0
12/4/2002 4:30,20.2,0,49.6,0,19.3,0,13.7,0,8.9,0,80.3,0
12/4/2002 4:45,20,0,50,0,19.3,0,13.7,0,9.1,0,79.6,0
12/4/2002 5:00,19.8,0,50.4,0,19.3,0,13.7,0,9.2,0,78.8,0
12/4/2002 5:15,19.6,0,50.6,0,19.2,0,13.8,0,9.3,0,77.8,0
12/4/2002 5:30,19.7,0,50.2,0,19.2,0,13.6,0,9.4,0,76.8,0
12/4/2002 5:45,19.8,0,50.6,0,19.2,0,13.6,0,9.5,0,75.8,0
12/4/2002 6:00,19.9,0,50.6,0,19.2,0,13.7,0,9.6,0,74.8,0
12/4/2002 6:15,20.2,0,50.6,0,19.3,0,13.7,0,9.7,0,74.6,0
12/4/2002 6:30,20.3,0,50.6,0,19.3,0,13.5,0,9.9,0,74.3,0
12/4/2002 6:45,20.3,0,49.2,0,19.4,0,13.5,0,10,0,74.1,0
12/4/2002 7:00,20.4,0,49.4,0,19.4,0,13.6,0,10.2,0,73.8,0
12/4/2002 7:15,20.5,0,48.1,0,19.4,0,13.3,0,10.1,0,74.1,0
12/4/2002 7:30,20.5,0,48.9,0,19.5,0,13.3,0,10,0,74.3,0
12/4/2002 7:45,20.7,0,49.2,0,19.6,0,13.4,0,10,0,74.6,0
12/4/2002 8:00,20.9,0,49.4,0,19.6,0,13.4,0,9.9,0,74.8,0
12/4/2002 8:15,20.8,0,47.6,0,19.6,0,13.4,0,9.8,0,76.8,0
12/4/2002 8:30,20.5,0,47.5,0,19.6,0,13.5,0,9.7,0,78.8,0
12/4/2002 8:45,20.1,0,47.4,0,19.5,0,13.5,0,9.6,0,80.8,0
12/4/2002 9:00,19.9,0,47.7,0,19.4,0,13.5,0,9.5,0,82.8,0
12/4/2002 9:15,19.6,0,48.1,0,19.4,0,13.6,0,9.6,0,80.8,0
12/4/2002 9:30,19.4,0,48.5,0,19.3,0,13.6,0,9.7,0,78.8,0
12/4/2002 9:45,19.2,0,48.9,0,19.2,0,13.7,0,9.9,0,76.8,0
12/4/2002 10:00,19,0,49.2,0,19.1,0,13.7,0,10,0,74.8,0
12/4/2002 10:15,18.8,0,49.6,0,19.1,0,13.7,0,10.2,0,75.6,0
12/4/2002 10:30,18.6,0,49.8,0,19,0,13.8,0,10.3,0,76.3,0
12/4/2002 10:45,18.4,0,50.2,0,18.9,0,13.8,0,10.5,0,77.1,0
12/4/2002 11:00,18.3,0,50.5,0,18.9,0,13.8,0,10.7,0,77.8,0
12/4/2002 11:15,18.1,0,50.8,0,18.8,0,13.9,0,10.7,0,78.1,0
12/4/2002 11:30,18,0,51.1,0,18.7,0,13.9,0,10.7,0,78.3,0
12/4/2002 11:45,17.8,0,51.4,0,18.7,0,13.9,0,10.7,0,78.6,0
12/4/2002 12:00,17.7,0,51.6,0,18.6,0,14,0,10.7,0,78.8,0
12/4/2002 12:15,17.6,0,52,0,18.6,0,14,0,10.6,0,80.1,0
12/4/2002 12:30,17.5,0,52.1,0,18.5,0,14,0,10.5,0,81.3,0
12/4/2002 12:45,17.4,0,52.4,0,18.5,0,14.1,0,10.4,0,82.6,0
12/4/2002 13:00,17.3,0,52.5,0,18.4,0,14.1,0,10.3,0,83.8,0
12/4/2002 13:15,17.2,0,52.9,0,18.3,0,14.1,0,10.4,0,84.3,0
12/4/2002 13:30,17.1,0,53,0,18.3,0,14.1,0,10.5,0,84.8,0
12/4/2002 13:45,17,0,53.2,0,18.2,0,14.2,0,10.6,0,85.3,0
12/4/2002 14:00,16.9,0,53.5,0,18.2,0,14.2,0,10.7,0,85.8,0
12/4/2002 14:15,16.9,0,53.5,0,18.1,0,14.2,0,10.6,0,86.3,0
12/4/2002 14:30,16.8,0,53.8,0,18.1,0,14.2,0,10.5,0,86.8,0
12/4/2002 14:45,16.7,0,53.9,0,18,0,14.3,0,10.5,0,87.3,0
12/4/2002 15:00,16.6,0,54.2,0,18,0,14.3,0,10.4,0,87.8,0
12/4/2002 15:15,16.6,0,54.3,0,17.9,0,14.3,0,10.1,0,87.8,0
12/4/2002 15:30,16.5,0,54.4,0,17.9,0,14.3,0,9.8,0,87.8,0
12/4/2002 15:45,16.4,0,54.4,0,17.8,0,14.3,0,9.6,0,87.8,0
12/4/2002 16:00,16.4,0,54.5,0,17.8,0,14.4,0,9.3,0,87.8,0
12/4/2002 16:15,16.3,0,54.6,0,17.7,0,14.4,0,9.3,0,88.3,0
12/4/2002 16:30,16.2,0,54.6,0,17.6,0,14.4,0,9.3,0,88.8,0
12/4/2002 16:45,16.1,0,54.7,0,17.6,0,14.4,0,9.3,0,89.3,0
12/4/2002 17:00,16.1,0,54.8,0,17.5,0,14.4,0,9.3,0,89.8,0
12/4/2002 17:15,15.9,0,54.8,0,17.4,0,14.5,0,9.2,0,89.8,0
12/4/2002 17:30,15.9,0,54.9,0,17.3,0,14.5,0,9.2,0,89.8,0
12/4/2002 17:45,15.8,0,55.1,0,17.3,0,14.5,0,9.1,0,89.8,0
12/4/2002 18:00,15.7,0,55.1,0,17.2,0,14.5,0,9.1,0,89.8,0
12/4/2002 18:15,15.6,0,55.2,0,17.1,0,14.5,0,9.2,0,89.1,0
12/4/2002 18:30,15.5,0,55.5,0,17.1,0,14.5,0,9.3,0,88.3,0
12/4/2002 18:45,15.5,0,56.3,0,17,0,14.6,0,9.4,0,87.6,0
12/4/2002 19:00,15.6,0,55.3,0,17,0,14.6,0,9.5,0,86.8,0
12/4/2002 19:15,16.1,0,56.5,0,17,0,14.6,0,9.6,0,85.8,0
12/4/2002 19:30,16.5,0,55.9,0,17.2,0,14.6,0,9.6,0,84.8,0
12/4/2002 19:45,17,0,55.4,0,17.3,0,13.4,0,9.7,0,83.8,0
12/4/2002 20:00,17.4,0,54.8,0,17.3,0,13.4,0,9.8,0,82.8,0
12/4/2002 20:15,17.8,0,53.9,0,17.4,0,13.5,0,9.9,0,81.8,0
12/4/2002 20:30,18.1,0,53.3,0,17.4,0,13.5,0,10.1,0,80.8,0
12/4/2002 20:45,18.5,0,53.8,0,17.5,0,12.7,0,10.2,0,79.8,0
12/4/2002 21:00,18.9,0,53.5,0,17.5,0,12.7,0,10.4,0,78.8,0
12/4/2002 21:15,19.2,0,53.1,0,17.6,0,12.8,0,10.2,0,79.3,0
12/4/2002 21:30,19.4,0,52.9,0,17.7,0,12.8,0,10.1,0,79.8,0
12/4/2002 21:45,19.6,0,51.8,0,17.8,0,12.8,0,9.9,0,80.3,0
12/4/2002 22:00,19.7,0,51.8,0,17.8,0,12.8,0,9.8,0,80.8,0
12/4/2002 22:15,19.8,0,53.2,0,17.9,0,12.9,0,9.5,0,82.6,0
12/4/2002 22:30,20,0,52.8,0,18,0,12.9,0,9.2,0,84.3,0
12/4/2002 22:45,20,0,51.8,0,18.1,0,12.9,0,9,0,86.1,0
12/4/2002 23:00,20,0,51.3,0,18.1,0,13,0,8.7,0,87.8,0
12/4/2002 23:15,19.9,0,51,0,18.3,0,13,0,8.7,0,88.1,0
12/4/2002 23:30,19.7,0,50.9,0,18.4,0,13,0,8.7,0,88.3,0
12/4/2002 23:45,19.5,0,50.9,0,18.6,0,13.1,0,8.7,0,88.6,0
12/5/2002 0:00,19.4,0,53.7,0,18.7,0,13.1,0,8.7,0,88.8,0
12/5/2002 0:15,19.2,0,51.5,0,18.7,0,13.1,0,9.1,0,88.8,0
12/5/2002 0:30,19.2,0,52,0,18.7,0,13.2,0,9.4,0,88.8,0
12/5/2002 0:45,19.1,0,55.3,0,18.8,0,13.2,0,9.8,0,88.8,0
12/5/2002 1:00,18.9,0,55,0,18.8,0,13.3,0,10.2,0,88.8,0
12/5/2002 1:15,18.7,0,54.8,0,18.7,0,13.3,0,9.7,0,89.1,0
12/5/2002 1:30,18.6,0,54.6,0,18.7,0,13.3,0,9.3,0,89.3,0
12/5/2002 1:45,18.4,0,54.6,0,18.6,0,13.4,0,8.8,0,89.6,0
12/5/2002 2:00,18.2,0,54.8,0,18.5,0,13.4,0,8.4,0,89.8,0
12/5/2002 2:15,18.1,0,54.8,0,18.5,0,13.4,0,8.5,0,89.3,0
12/5/2002 2:30,17.9,0,54.9,0,18.5,0,13.5,0,8.6,0,88.8,0
12/5/2002 2:45,17.8,0,54.9,0,18.4,0,13.5,0,8.8,0,88.3,0
12/5/2002 3:00,17.6,0,55.1,0,18.4,0,13.5,0,8.9,0,87.8,0
12/5/2002 3:15,17.4,0,55.2,0,18.4,0,13.6,0,8.8,0,88.1,0
12/5/2002 3:30,17.3,0,55.2,0,18.3,0,13.6,0,8.7,0,88.3,0
12/5/2002 3:45,17.1,0,55.3,0,18.2,0,13.6,0,8.7,0,88.6,0
12/5/2002 4:00,17,0,55.4,0,18.2,0,13.7,0,8.6,0,88.8,0
12/5/2002 4:15,16.9,0,55.7,0,18.2,0,13.7,0,8.9,0,88.6,0
12/5/2002 4:30,16.7,0,55.7,0,18.1,0,13.7,0,9.1,0,88.3,0
12/5/2002 4:45,16.6,0,56,0,18,0,13.8,0,9.4,0,88.1,0
12/5/2002 5:00,16.4,0,56,0,17.9,0,13.8,0,9.7,0,87.8,0
12/5/2002 5:15,16.3,0,56.3,0,17.9,0,13.8,0,9.7,0,88.1,0
12/5/2002 5:30,16.2,0,56.4,0,17.8,0,13.9,0,9.6,0,88.3,0
12/5/2002 5:45,16.1,0,56.6,0,17.8,0,13.9,0,9.6,0,88.6,0
12/5/2002 6:00,16,0,56.9,0,17.7,0,13.9,0,9.6,0,88.8,0
12/5/2002 6:15,15.8,0,57.3,0,17.6,0,13.9,0,9.7,0,88.6,0
12/5/2002 6:30,15.8,0,57.7,0,17.6,0,14,0,9.9,0,88.3,0
12/5/2002 6:45,15.6,0,58,0,17.5,0,14,0,10,0,88.1,0
12/5/2002 7:00,15.5,0,58.4,0,17.5,0,14,0,10.2,0,87.8,0
12/5/2002 7:15,15.6,0,56.8,0,17.4,0,14,0,10.5,0,86.3,0
12/5/2002 7:30,16.2,0,58.4,0,17.5,0,14,0,10.9,0,84.8,0
12/5/2002 7:45,16.7,0,58.7,0,17.6,0,14.1,0,11.2,0,83.3,0
12/5/2002 8:00,17.3,0,59.5,0,17.7,0,13.6,0,11.6,0,81.8,0